OBJECT D, 64879

Orbit data source: Space-Track

You're viewing an Uncataloged Satellite

Recently launched and/or uncataloged satellites may have evolving metadata. Metadata may include but not limited to: Owner, Maufacturer, Bus, Motor, and Mission.

OBJECT D, 64879 is a satellite in SSO that was launched on Fri, 25 Jul 2025 UTC via a SOYUZ-2-1B launch vehicle from the Vostochny Cosmodrome (VOSTO). Unknown objects in Earth's orbit typically refer to objects detected orbiting the Earth but have not yet been identified or cataloged. These objects could be anything from previously untracked satellites, spent rocket stages, debris from satellite collisions, or even natural meteoroids temporarily captured by Earth's gravity.

Loading next visibility...
Identifier
64879, 2025-155D
Orbit
SSO
Country
Flag of TBDTBD
Related business
Flag of RUGeoscan (RU)
Manufacturer
SPUT/GEOSK
Mission
Operational Commercial Science
Bus & Motor
CUBESAT 3U, Unknown motor
Mass
3 kg wet, 3 kg dry
Launch date (UTC)
2025-07-25 (8 months ago)
Launch vehicle
SOYUZ-2-1B
Launch site
Vostochny Cosmodrome (VOSTO)
Object type
Unknown
Shape & HBR
Box, 1.1 m
Radar Cross Section
0.035 m², Small (<0.1 m²)

Expand to show TLE details & history
Last TLE update: 9 hours ago

TLE from 9 hours ago
0 OBJECT D
1 64879U 25155D   26073.95388878  .00014502  00000-0  53040-3 0  9993
2 64879  97.4463  42.3309 0009393 138.5127 221.6827 15.28129717 66363
Epoch: 2026-03-14T22:53Z
TLE epoch observation values (Epoch: 2026-03-14T22:53:35.990Z)
Latitude
-0.00004°
Longitude
-113.63672°
Altitude
489.32 km
Speed
7.618 km/s
True Right ascension
02h 49m 19s
True Declination
0° 00' 00"
Sunlit
Object was in daylight at epoch
Visualization orbit readout
Latitude
Unknown
Longitude
Unknown
Altitude
Unknown
Speed
Unknown
Apparent Right ascension
Unknown
Apparent Declination
Unknown
Sunlit
N/A
Visualization observer readout
Local Sidereal Time
12:20:18
Azimuth
Unknown
Elevation
Unknown
Doppler factor
Unknown
Orbital elements
Apogee altitude
484.801 km
Perigee altitude
471.92 km
Semi-major axis
6,856.497 km
Eccentricity
0.00094
Inclination
97.4463°
RAAN
42.3309°
Arg. of periapsis
138.5127°
True anomaly
221.61118°
Mean anomaly
221.6827°
Eccentric anomaly
221.64694°
Mean motion
3.82287 °/min
Orbital period
94.17 mins
BSTAR
0.0005304
Loading maneuver chart data...
Computing Atmospheric mass density...
Loading historical data...
Loading historical data...
Loading historical data...
Loading historical data...
Loading historical data...
Loading historical data...
Loading historical data...

Documentation

Showing up to 5 results
|